COSMOS 2336

导读 | 星芒AI

COSMOS 2336 是一颗由俄罗斯发射的军用通信卫星,于2002年12月19日使用联盟号火箭从普列谢茨克航天发射场发射升空。该卫星属于俄罗斯的军事通信系统,用于支持战略指挥和控制通信。其具体轨道参数和任务细节未公开,但据信运行在近地轨道。COSMOS 2336 在俄罗斯国防通信体系中扮演重要角色,确保在各种作战条件下保持通信能力。

基本信息
目录编号:
24677
目录名称:
COSMOS 2336
国际标识:
1996-071A
轨道中心:
EARTH
卫星名称:
COSMOS 2336
卫星全名:
--
卫星状态:
在轨 (已飞行10587 天)
发射日期:
1996-12-20 UTC
国别 :
俄罗斯(独联体) (CIS)
星等 :
--
轨道信息
数据来源 国际轨道数据 AOE轨道数据
星历时间 2025-12-14T08:49:07+0800
1天前
查看轨道信息
2025-12-11T06:00:00+0800
4天前
查看轨道信息
半长轴 7371.72km 7371.723km
偏心率 0.0025134 0.0025492
轨道倾角 82.941° 82.941°
近地点辐角 73.870° 82.221°
升交点赤经 343.128° 345.425°
平近点角 340.698° 67.051°
近地点 975.056km 974.796km
远地点 1012.114km 1012.38km
周期 104.982分钟 104.982分钟
每日圈数 13.716698 13.716689
详细信息
使用方式:
暂无
2D轨道图
3D轨道图
轨道高度分析图
轨道倾角分析图
轨道综合分析图
查看轨道综合分析图